This is the latest recevied weather packets stored in our database for station/object VA7IS. If no packets are shown the sender has not sent any weather packets the latest 10 day(s).
| Time | Temp. | Humidity | Pressure | Rain* | Wind** | Luminosity | Snow |
|---|---|---|---|---|---|---|---|
| 1778135105 | 12.78° C | 1% | 1018.4 hPa | 0 mm | - | - | - |
| 1778133905 | 12.78° C | 1% | 1018.4 hPa | 0 mm | - | - | - |
| 1778132405 | 12.78° C | 2% | 1018.3 hPa | 0 mm | - | - | - |
| 1778129105 | 12.78° C | 2% | 1018.2 hPa | 0 mm | - | - | - |
| 1778126705 | 13.33° C | 4% | 1018.1 hPa | 0 mm | - | - | - |
| 1778124904 | 13.33° C | 2% | 1018.1 hPa | 0 mm | - | - | - |
| 1778122805 | 13.89° C | 9% | 1018.1 hPa | 0 mm | - | - | - |
| 1778122205 | 13.89° C | 16% | 1018.1 hPa | 0 mm | - | - | - |
| 1778120705 | 13.89° C | 27% | 1018.1 hPa | 0 mm | - | - | - |
| 1778116804 | 13.89° C | 31% | 1018.1 hPa | 0 mm | - | - | - |
| 1778115605 | 13.89° C | 31% | 1018.1 hPa | 0 mm | - | - | - |
| 1778114405 | 14.44° C | 36% | 1018.2 hPa | 0 mm | - | - | - |
| 1778110205 | 14.44° C | 34% | 1018 hPa | 0 mm | - | - | - |
| 1778103005 | 14.44° C | 22% | 1018.3 hPa | 0 mm | - | - | - |
| 1778102404 | 14.44° C | 22% | 1018.4 hPa | 0 mm | - | - | - |
| 1778101205 | 14.44° C | 19% | 1018.5 hPa | 0 mm | - | - | - |
| 1778099405 | 13.89° C | 14% | 1018.6 hPa | 0 mm | - | - | - |
| 1778097905 | 13.89° C | 7% | 1018.5 hPa | 0 mm | - | - | - |
| 1778094604 | 13.33° C | 1% | 1018.5 hPa | 0 mm | - | - | - |
| 1778092504 | 13.33° C | 1% | 1018.4 hPa | 0 mm | - | - | - |
| 1778090105 | 13.33° C | 1% | 1018.1 hPa | 0 mm | - | - | - |
| 1778089204 | 13.33° C | 1% | 1018.2 hPa | 0 mm | - | - | - |
| 1778087704 | 13.33° C | 1% | 1018.1 hPa | 0 mm | - | - | - |
| 1778086805 | 13.33° C | 1% | 1018 hPa | 0 mm | - | - | - |
| 1778084705 | 13.33° C | 1% | 1017.6 hPa | 0 mm | - | - | - |
* Rain latest hour (hover to see other rain measurements)
** Current wind speed in m/s (hover to see current wind gust speed)